This is the latest recevied weather packets stored in our database for station/object KJ4YLO. If no packets are shown the sender has not sent any weather packets the latest 10 day(s).
| Time | Temp. | Humidity | Pressure | Rain* | Wind** | Luminosity | Snow |
|---|---|---|---|---|---|---|---|
| 1778077196 | 18.89° C | 65% | 1016.3 hPa | 0 mm | - | 66 W/m² | - |
| 1778076894 | 19.44° C | 64% | 1015.9 hPa | 0 mm | - | 86 W/m² | - |
| 1778076593 | 18.89° C | 65% | 1015.5 hPa | 0 mm | - | 144 W/m² | - |
| 1778076289 | 18.89° C | 66% | 1015.5 hPa | 0 mm | - | 141 W/m² | - |
| 1778075986 | 18.89° C | 66% | 1015.5 hPa | 0 mm | - | 124 W/m² | - |
| 1778075683 | 18.33° C | 67% | 1015.9 hPa | 0 mm | - | 93 W/m² | - |
| 1778075379 | 18.89° C | 68% | 1015.9 hPa | 0 mm | - | 60 W/m² | - |
| 1778075075 | 18.33° C | 66% | 1015.1 hPa | 0 mm | - | 152 W/m² | - |
| 1778074772 | 18.33° C | 68% | 1015.5 hPa | 0 mm | - | 135 W/m² | - |
| 1778074470 | 17.78° C | 68% | 1015.5 hPa | 0 mm | - | 120 W/m² | - |
| 1778074166 | 18.33° C | 69% | 1015.9 hPa | 0 mm | - | 91 W/m² | - |
| 1778073863 | 18.33° C | 68% | 1016.3 hPa | 0 mm | - | 60 W/m² | - |
| 1778073561 | 18.33° C | 67% | 1015.5 hPa | 0 mm | - | 92 W/m² | - |
| 1778073257 | 17.78° C | 68% | 1015.5 hPa | 0 mm | - | 117 W/m² | - |
| 1778072954 | 17.78° C | 70% | 1015.5 hPa | 0 mm | - | 103 W/m² | - |
| 1778072650 | 17.78° C | 72% | 1015.5 hPa | 0 mm | - | 88 W/m² | - |
| 1778072349 | 17.78° C | 72% | 1016.3 hPa | 0 mm | - | 90 W/m² | - |
| 1778072047 | 17.78° C | 71% | 1015.9 hPa | 0 mm | - | 68 W/m² | - |
| 1778071745 | 17.78° C | 71% | 1015.9 hPa | 0 mm | - | 65 W/m² | - |
| 1778071442 | 17.22° C | 71% | 1015.9 hPa | 0 mm | - | 50 W/m² | - |
| 1778071139 | 17.22° C | 72% | 1015.5 hPa | 0 mm | - | 57 W/m² | - |
| 1778070837 | 17.22° C | 75% | 1015.9 hPa | 0 mm | - | 54 W/m² | - |
| 1778070534 | 16.67° C | 75% | 1015.9 hPa | 0 mm | - | 55 W/m² | - |
| 1778070231 | 16.67° C | 75% | 1015.9 hPa | 0 mm | - | 53 W/m² | - |
| 1778069929 | 16.67° C | 75% | 1016.3 hPa | 0 mm | - | 36 W/m² | - |
* Rain latest hour (hover to see other rain measurements)
** Current wind speed in m/s (hover to see current wind gust speed)